Weather History for Ft Riley, KS

Change the Weather History Date:

Sunday, August 17, 2014

  Actual Average (KMHK) Record (KMHK)
Temperature  
Mean Temperature 78 °F 77 °F  
Max Temperature 90 °F 90 °F 104 °F (2003)
Min Temperature 66 °F 65 °F 48 °F (2012)
Degree Days  
Heating Degree Days 0 0  
Month to date heating degree days 0  
Since 1 June heating degree days 12  
Since 1 July heating degree days 1  
Cooling Degree Days 12 12  
Month to date cooling degree days 227  
Year to date cooling degree days 1033  
Since 1 June cooling degree days 933  
Growing Degree Days 28 (Base 50)    
Moisture  
Dew Point 69 °F    
Average Humidity 79    
Maximum Humidity 100    
Minimum Humidity 46    
Precipitation  
Precipitation 0.35 in 0.16 in 0.54 in (2006)
Month to date precipitation 2.04  
Year to date precipitation 22.30  
Sea Level Pressure  
Sea Level Pressure 29.94 in    
Wind  
Wind Speed 4 mph (NE)    
Max Wind Speed 32 mph    
Max Gust Speed 48 mph    
Visibility 8 miles    
Events Rain , Thunderstorm    
T = Trace of Precipitation, MM = Missing Value Source: NWS Daily Summary

Daily Weather History Graph

Daily Weather History Graph

Search for Another Location

Airport:

Trip Planner

Search our weather history database for the weather conditions in past years. The results will help you decide how hot, cold, wet, or windy it might be!

Date:

Astronomy

Aug. 17, 2014 Rise Set
Actual Time 6:42 AM CDT 8:19 PM CDT
Civil Twilight 6:13 AM CDT 8:47 PM CDT
Nautical Twilight 5:39 AM CDT 9:21 PM CDT
Astronomical Twilight 5:03 AM CDT 9:57 PM CDT
Moon 12:08 AM CDT (8/17) 2:25 PM CDT (8/17)
Length of Visible Light 14h 33m
Length of Day
13h 37m
Waning Gibbous, 48% of the Moon is Illuminated
Aug 17
Waning Gibbous
Aug 25
New
Sep 2
First Quarter
Sep 8
Full
Sep 15
Last Quarter

Hourly Weather History & Observations

Time (CDT) Temp. Heat Index Dew Point Humidity Pressure Visibility Wind Dir Wind Speed Gust Speed Precip Events Conditions
12:58 AM 70.9 °F - 70.9 °F 100% 29.90 in 8.0 mi Calm Calm - N/A   Clear
1:58 AM 68.4 °F - 68.4 °F 100% 29.90 in 10.0 mi ENE 3.5 mph - N/A   Clear
2:58 AM 69.1 °F - 69.1 °F 100% 29.91 in 10.0 mi NNE 1.2 mph - N/A   Clear
3:58 AM 67.8 °F - 67.8 °F 100% 29.91 in 10.0 mi Calm Calm - N/A   Clear
4:58 AM 66.7 °F - 66.6 °F 99% 29.91 in 10.0 mi Calm Calm - N/A   Clear
5:58 AM 66.2 °F - - N/A% 29.91 in 9.0 mi Calm Calm - N/A   Clear
6:58 AM 66.2 °F - - N/A% 29.93 in 8.0 mi ENE 2.3 mph - N/A   Clear
7:58 AM 68.0 °F - - N/A% 29.95 in 10.0 mi Calm Calm - N/A   Clear
8:58 AM 71.6 °F - 71.6 °F 100% 29.97 in 10.0 mi Variable 1.2 mph - N/A   Clear
9:58 AM 75.7 °F - 74.8 °F 97% 29.96 in 10.0 mi Variable 2.3 mph - 0.00 in   Clear
10:58 AM 79.7 °F - 72.5 °F 79% 29.96 in 10.0 mi Variable 2.3 mph - N/A   Clear
11:58 AM 82.6 °F 87.1 °F 71.2 °F 68% 29.95 in 10.0 mi Variable 2.3 mph - N/A   Clear
12:58 PM 85.5 °F 90.4 °F 70.7 °F 61% 29.94 in 10.0 mi NE 6.9 mph - N/A   Clear
1:58 PM 86.9 °F 91.7 °F 70.2 °F 57% 29.92 in 10.0 mi NNE 8.1 mph - N/A   Clear
2:58 PM 89.1 °F 93.3 °F 68.9 °F 51% 29.91 in 10.0 mi Variable 4.6 mph - N/A   Clear
3:58 PM 89.8 °F 94.2 °F 68.7 °F 50% 29.90 in 10.0 mi NE 9.2 mph - N/A   Clear
4:58 PM 89.6 °F 92.6 °F 67.1 °F 47% 29.88 in 10.0 mi Calm Calm - N/A   Clear
5:58 PM 89.8 °F 92.5 °F 66.4 °F 46% 29.86 in 10.0 mi ENE 3.5 mph - N/A   Clear
6:58 PM 88.3 °F 91.6 °F 67.6 °F 50% 29.84 in 10.0 mi ENE 5.8 mph - N/A   Clear
7:58 PM 84.0 °F 88.1 °F 69.8 °F 62% 29.83 in 10.0 mi ENE 4.6 mph - N/A   Clear
8:58 PM 80.4 °F 83.8 °F 70.3 °F 71% 29.84 in 10.0 mi East 5.8 mph - N/A   Clear
9:58 PM 78.1 °F - 69.6 °F 75% 29.89 in 10.0 mi Variable 2.3 mph - N/A   Clear
10:58 PM 75.7 °F - 70.2 °F 83% 29.91 in 10.0 mi East 8.1 mph - N/A   Clear
11:29 PM 77.0 °F - 66.2 °F 69% 30.07 in 9.0 mi NW 32.2 mph 47.2 mph N/A Rain Light Rain
11:42 PM 69.8 °F - 69.8 °F 100% 30.10 in 1.2 mi NW 24.2 mph 48.3 mph N/A Rain , Thunderstorm Heavy Thunderstorms and Rain
11:47 PM 68.0 °F - 68.0 °F 100% 30.10 in 1.0 mi NNW 23.0 mph 38.0 mph N/A Rain , Thunderstorm Heavy Thunderstorms and Rain
11:52 PM 68.0 °F - 68.0 °F 100% 30.09 in 1.0 mi NW 12.7 mph 32.2 mph N/A Rain , Thunderstorm Heavy Thunderstorms and Rain
11:57 PM 68.0 °F - 68.0 °F 100% 30.08 in 1.2 mi Variable 6.9 mph 26.5 mph N/A Rain , Thunderstorm Heavy Thunderstorms and Rain
11:58 PM 67.5 °F - 67.5 °F 100% 30.05 in 1.2 mi NNW 8.1 mph 26.5 mph 0.35 in Rain , Thunderstorm Heavy Thunderstorms and Rain